GFSFLT2_prec_precacc24_108.txt.gz
Total_Precipitation_Accumulation
1.06 3.42 2.52 2.07 3.20 3.15 3.31 2.37 2.12 1.74 1.20 0.59 0.28 0.23 0.19 0.05 0.01 0.01 0.00 0.00 0.00 0.00 0.00 0.00 0.00 0.00 0.00 0.00 0.00 0.00 0.00 0.00
0.25 0.76 1.22 1.19 2.43 3.60 3.18 3.40 2.71 1.95 1.51 1.23 0.41 0.43 0.27 0.15 0.01 0.00 0.00 0.00 0.00 0.00 0.00 0.00 0.00 0.00 0.00 0.00 0.00 0.00 0.00 0.00
0.09 0.24 0.49 1.03 1.54 2.98 2.84 3.60 3.09 1.92 1.52 2.02 0.78 0.34 0.35 0.22 0.01 0.00 0.00 0.00 0.00 0.00 0.00 0.00 0.00 0.00 0.00 0.00 0.00 0.00 0.00 0.00
0.05 0.61 0.92 1.13 1.64 1.69 2.09 2.90 4.53 2.18 1.46 1.68 1.38 0.46 0.37 0.19 0.03 0.00 0.00 0.00 0.00 0.00 0.00 0.00 0.00 0.00 0.00 0.00 0.00 0.00 0.00 0.00
0.02 1.04 1.72 1.26 1.31 2.01 2.01 2.34 4.07 3.27 1.38 0.99 1.40 0.52 0.45 0.25 0.04 0.02 0.00 0.00 0.00 0.00 0.00 0.00 0.00 0.00 0.00 0.00 0.00 0.00 0.00 0.00
0.08 0.12 1.25 1.35 1.18 1.80 1.90 1.30 1.94 3.66 1.64 0.98 0.75 0.76 0.31 0.17 0.04 0.00 0.00 0.00 0.00 0.00 0.00 0.00 0.00 0.00 0.00 0.00 0.00 0.00 0.00 0.00
0.08 0.12 0.47 1.30 1.53 1.67 1.44 0.76 1.03 2.43 1.96 1.18 0.38 0.48 0.24 0.09 0.05 0.00 0.00 0.00 0.00 0.00 0.00 0.00 0.00 0.00 0.00 0.00 0.00 0.00 0.00 0.00
0.04 0.05 0.08 0.54 1.33 1.10 1.23 0.76 0.76 1.65 2.04 1.22 0.43 0.24 0.20 0.02 0.02 0.02 0.00 0.00 0.00 0.00 0.00 0.00 0.00 0.00 0.00 0.00 0.00 0.00 0.00 0.00
0.02 0.02 0.04 0.46 0.88 0.91 0.94 0.79 0.59 0.94 1.62 1.27 0.74 0.30 0.17 0.03 0.01 0.03 0.01 0.00 0.00 0.00 0.00 0.00 0.00 0.00 0.00 0.00 0.00 0.00 0.00 0.00
0.04 0.01 0.03 0.25 0.63 0.81 0.92 0.76 0.51 0.59 0.97 1.07 0.78 0.51 0.21 0.05 0.00 0.01 0.00 0.00 0.00 0.00 0.00 0.00 0.00 0.00 0.00 0.00 0.00 0.00 0.00 0.00
0.13 0.08 0.08 0.24 0.44 0.53 0.82 0.65 0.49 0.46 0.74 0.84 0.63 0.47 0.27 0.05 0.03 0.04 0.03 0.00 0.00 0.00 0.00 0.00 0.00 0.00 0.00 0.00 0.00 0.00 0.00 0.00
0.22 0.19 0.18 0.14 0.31 0.36 0.77 0.65 0.57 0.54 0.47 0.57 0.54 0.33 0.20 0.08 0.04 0.03 0.10 0.04 0.04 0.01 0.00 0.00 0.00 0.00 0.00 0.00 0.00 0.00 0.00 0.00
0.11 0.23 0.30 0.16 0.09 0.33 0.78 0.72 0.60 0.62 0.49 0.40 0.40 0.25 0.17 0.10 0.03 0.01 0.04 0.03 0.05 0.02 0.00 0.01 0.01 0.01 0.00 0.00 0.00 0.00 0.00 0.00
0.01 0.10 0.25 0.09 0.10 0.22 0.50 0.56 0.57 0.52 0.61 0.48 0.36 0.23 0.14 0.08 0.03 0.01 0.01 0.03 0.03 0.02 0.01 0.02 0.02 0.02 0.01 0.00 0.00 0.00 0.00 0.00
0.00 0.01 0.12 0.12 0.05 0.10 0.31 0.51 0.62 0.76 0.94 0.81 0.46 0.27 0.13 0.08 0.06 0.02 0.03 0.03 0.02 0.02 0.01 0.01 0.02 0.02 0.02 0.00 0.00 0.00 0.00 0.00
0.00 0.01 0.02 0.03 0.01 0.02 0.14 0.47 0.51 0.66 0.71 0.94 0.57 0.37 0.20 0.12 0.08 0.04 0.04 0.05 0.03 0.04 0.03 0.03 0.02 0.02 0.02 0.01 0.00 0.00 0.01 0.00
0.00 0.00 0.00 0.01 0.00 0.00 0.03 0.14 0.27 0.45 0.68 0.99 1.08 0.69 0.39 0.18 0.11 0.06 0.08 0.08 0.16 0.10 0.06 0.08 0.07 0.05 0.04 0.03 0.02 0.01 0.01 0.01
0.00 0.00 0.00 0.01 0.00 0.00 0.01 0.03 0.03 0.15 0.41 0.67 1.19 1.06 0.66 0.39 0.18 0.11 0.12 0.13 0.21 0.21 0.22 0.16 0.16 0.12 0.07 0.06 0.03 0.03 0.04 0.07
0.00 0.00 0.00 0.00 0.00 0.00 0.00 0.01 0.00 0.01 0.07 0.21 0.49 0.92 0.78 0.52 0.26 0.15 0.17 0.19 0.23 0.28 0.30 0.25 0.17 0.16 0.11 0.13 0.14 0.11 0.11 0.15
0.00 0.00 0.00 0.00 0.00 0.01 0.00 0.00 0.00 0.00 0.01 0.05 0.11 0.25 0.47 0.49 0.40 0.21 0.19 0.21 0.22 0.26 0.33 0.29 0.23 0.23 0.23 0.23 0.25 0.21 0.17 0.14

GFSFLT2_prec_precacc24_111.txt.gz
Total_Precipitation_Accumulation
1.05 3.41 2.39 1.68 2.32 2.75 3.03 2.21 2.14 1.85 1.28 0.68 0.29 0.33 0.47 0.24 0.08 0.03 0.00 0.00 0.00 0.00 0.00 0.00 0.00 0.00 0.00 0.00 0.00 0.00 0.00 0.00
0.21 0.75 1.16 0.92 1.46 2.55 2.88 3.20 2.78 2.03 1.57 1.27 0.44 0.44 0.34 0.33 0.11 0.03 0.00 0.00 0.00 0.00 0.00 0.00 0.00 0.00 0.00 0.00 0.00 0.00 0.00 0.00
0.07 0.16 0.37 0.68 0.79 1.72 2.22 3.18 3.09 2.03 1.57 2.05 0.79 0.36 0.37 0.28 0.08 0.03 0.01 0.00 0.00 0.00 0.00 0.00 0.00 0.00 0.00 0.00 0.00 0.00 0.00 0.00
0.03 0.09 0.28 0.44 0.76 1.11 1.48 2.28 4.39 2.31 1.55 1.75 1.40 0.47 0.38 0.23 0.14 0.05 0.02 0.00 0.00 0.00 0.00 0.00 0.00 0.00 0.00 0.00 0.00 0.00 0.00 0.00
0.01 0.11 0.22 0.39 0.53 1.44 1.62 1.81 3.95 3.39 1.58 1.14 1.46 0.56 0.49 0.30 0.11 0.07 0.03 0.00 0.00 0.00 0.00 0.00 0.00 0.00 0.00 0.00 0.00 0.00 0.00 0.00
0.07 0.06 0.32 0.26 0.46 1.30 1.62 1.13 1.91 3.67 1.73 1.15 0.85 0.88 0.37 0.27 0.07 0.02 0.01 0.00 0.00 0.00 0.00 0.00 0.00 0.00 0.00 0.00 0.00 0.00 0.00 0.00
0.08 0.12 0.29 0.78 0.90 1.21 1.25 0.72 1.04 2.46 2.00 1.27 0.46 0.59 0.36 0.19 0.07 0.01 0.00 0.00 0.00 0.00 0.00 0.00 0.00 0.00 0.00 0.00 0.00 0.00 0.00 0.00
0.04 0.05 0.07 0.47 1.09 0.86 1.13 0.76 0.78 1.72 2.10 1.35 0.69 0.30 0.30 0.08 0.04 0.02 0.00 0.00 0.00 0.00 0.00 0.00 0.00 0.00 0.00 0.00 0.00 0.00 0.00 0.00
0.02 0.02 0.04 0.46 0.86 0.89 0.92 0.79 0.60 1.00 1.72 1.35 1.22 0.43 0.25 0.06 0.01 0.03 0.01 0.00 0.00 0.00 0.00 0.00 0.00 0.00 0.00 0.00 0.00 0.00 0.00 0.00
0.04 0.01 0.02 0.25 0.62 0.79 0.92 0.76 0.53 0.67 1.24 1.15 1.09 0.94 0.27 0.07 0.01 0.01 0.00 0.00 0.00 0.00 0.00 0.00 0.00 0.00 0.00 0.00 0.00 0.00 0.00 0.00
0.04 0.05 0.05 0.23 0.44 0.52 0.81 0.65 0.50 0.52 0.99 0.99 0.75 0.83 0.32 0.07 0.03 0.05 0.03 0.00 0.00 0.00 0.00 0.00 0.00 0.00 0.00 0.00 0.00 0.00 0.00 0.00
0.07 0.04 0.14 0.12 0.29 0.35 0.77 0.65 0.56 0.56 0.84 0.76 0.62 0.42 0.24 0.10 0.05 0.03 0.10 0.04 0.04 0.01 0.00 0.00 0.00 0.00 0.00 0.00 0.00 0.00 0.00 0.00
0.07 0.14 0.22 0.15 0.06 0.33 0.78 0.71 0.56 0.61 0.67 0.62 0.50 0.34 0.21 0.10 0.02 0.02 0.04 0.03 0.05 0.02 0.00 0.01 0.01 0.01 0.00 0.00 0.00 0.00 0.00 0.00
0.01 0.08 0.23 0.08 0.08 0.22 0.50 0.56 0.56 0.52 0.62 0.55 0.48 0.34 0.20 0.10 0.03 0.01 0.01 0.03 0.03 0.02 0.01 0.02 0.02 0.02 0.01 0.00 0.00 0.00 0.00 0.00
0.00 0.01 0.12 0.12 0.05 0.10 0.31 0.53 0.64 0.78 0.95 0.84 0.50 0.35 0.23 0.11 0.07 0.02 0.01 0.02 0.02 0.02 0.01 0.01 0.02 0.02 0.02 0.00 0.00 0.00 0.00 0.00
0.00 0.01 0.02 0.03 0.01 0.02 0.14 0.47 0.53 0.67 0.71 0.94 0.59 0.39 0.24 0.16 0.10 0.05 0.04 0.05 0.03 0.03 0.03 0.03 0.02 0.02 0.02 0.01 0.00 0.00 0.01 0.00
0.00 0.00 0.00 0.01 0.00 0.00 0.03 0.14 0.27 0.47 0.72 1.01 1.11 0.73 0.40 0.19 0.13 0.07 0.09 0.08 0.15 0.09 0.05 0.07 0.07 0.05 0.04 0.03 0.02 0.01 0.01 0.01
0.00 0.00 0.00 0.01 0.00 0.00 0.01 0.03 0.03 0.15 0.42 0.70 1.28 1.32 0.79 0.42 0.21 0.13 0.16 0.16 0.19 0.17 0.18 0.15 0.16 0.13 0.08 0.06 0.03 0.03 0.04 0.07
0.00 0.00 0.00 0.00 0.01 0.00 0.00 0.01 0.00 0.01 0.07 0.22 0.53 1.31 1.29 0.74 0.33 0.20 0.21 0.22 0.23 0.28 0.31 0.28 0.21 0.22 0.15 0.13 0.12 0.08 0.09 0.12
0.00 0.00 0.00 0.00 0.00 0.01 0.00 0.00 0.00 0.00 0.01 0.06 0.18 0.37 0.86 0.83 0.61 0.32 0.27 0.29 0.31 0.37 0.47 0.44 0.36 0.33 0.32 0.22 0.21 0.14 0.10 0.09

GFSFLT2_prec_precacc24_114.txt.gz
Total_Precipitation_Accumulation
0.95 3.17 2.37 1.67 2.31 2.74 3.03 2.16 2.01 1.75 1.28 0.72 0.34 0.35 0.48 0.27 0.18 0.09 0.06 0.04 0.02 0.01 0.00 0.00 0.00 0.00 0.00 0.00 0.00 0.00 0.00 0.00
0.15 0.63 1.03 0.81 1.41 2.50 2.87 3.14 2.58 1.89 1.47 1.25 0.44 0.45 0.35 0.36 0.21 0.14 0.05 0.01 0.01 0.00 0.00 0.00 0.00 0.00 0.00 0.00 0.00 0.00 0.00 0.00
0.04 0.12 0.21 0.36 0.60 1.55 2.13 3.10 2.85 1.82 1.43 1.99 0.78 0.36 0.38 0.30 0.12 0.09 0.09 0.03 0.00 0.00 0.00 0.00 0.00 0.00 0.00 0.00 0.00 0.00 0.00 0.00
0.03 0.04 0.11 0.28 0.46 0.71 1.19 2.10 4.07 2.00 1.39 1.70 1.40 0.47 0.39 0.24 0.17 0.09 0.07 0.02 0.00 0.00 0.00 0.00 0.00 0.00 0.00 0.00 0.00 0.00 0.00 0.00
0.01 0.07 0.04 0.16 0.26 0.88 1.28 1.57 3.53 3.06 1.45 1.09 1.47 0.56 0.50 0.30 0.17 0.21 0.08 0.01 0.00 0.00 0.00 0.00 0.00 0.00 0.00 0.00 0.00 0.00 0.00 0.00
0.05 0.05 0.06 0.09 0.21 0.60 1.40 0.98 1.60 3.44 1.60 1.14 0.92 0.90 0.38 0.28 0.12 0.12 0.06 0.00 0.00 0.00 0.00 0.00 0.00 0.00 0.00 0.00 0.00 0.00 0.00 0.00
0.05 0.12 0.13 0.19 0.31 0.68 1.07 0.62 0.94 2.40 1.96 1.26 0.55 0.67 0.41 0.21 0.13 0.04 0.01 0.00 0.00 0.00 0.00 0.00 0.00 0.00 0.00 0.00 0.00 0.00 0.00 0.00
0.02 0.05 0.06 0.21 0.43 0.49 0.94 0.66 0.75 1.71 2.10 1.36 0.71 0.33 0.38 0.16 0.09 0.04 0.00 0.00 0.00 0.00 0.00 0.00 0.00 0.00 0.00 0.00 0.00 0.00 0.00 0.00
0.01 0.02 0.04 0.28 0.49 0.53 0.68 0.68 0.58 0.99 1.70 1.30 1.21 0.47 0.31 0.18 0.11 0.05 0.01 0.00 0.00 0.00 0.00 0.00 0.00 0.00 0.00 0.00 0.00 0.00 0.00 0.00
0.02 0.01 0.02 0.24 0.52 0.61 0.71 0.66 0.51 0.66 1.22 1.18 1.17 1.11 0.35 0.18 0.11 0.06 0.02 0.01 0.00 0.00 0.00 0.00 0.00 0.00 0.00 0.00 0.00 0.00 0.00 0.00
0.03 0.04 0.03 0.22 0.42 0.47 0.77 0.64 0.49 0.51 0.99 1.04 0.83 1.27 0.66 0.14 0.08 0.08 0.05 0.02 0.00 0.00 0.00 0.00 0.00 0.00 0.00 0.00 0.00 0.00 0.00 0.00
0.03 0.02 0.02 0.08 0.24 0.33 0.73 0.64 0.55 0.55 0.85 0.80 0.70 0.89 0.83 0.23 0.09 0.05 0.11 0.05 0.04 0.01 0.00 0.00 0.00 0.00 0.00 0.00 0.00 0.00 0.00 0.00
0.01 0.03 0.08 0.13 0.05 0.31 0.73 0.68 0.55 0.60 0.70 0.67 0.56 0.65 0.57 0.31 0.06 0.04 0.06 0.04 0.05 0.02 0.00 0.01 0.01 0.01 0.00 0.00 0.00 0.00 0.00 0.00
0.00 0.02 0.06 0.06 0.06 0.20 0.47 0.55 0.56 0.51 0.62 0.58 0.53 0.57 0.39 0.17 0.07 0.03 0.02 0.03 0.03 0.02 0.01 0.02 0.02 0.02 0.01 0.00 0.00 0.00 0.00 0.00
0.00 0.01 0.08 0.10 0.04 0.07 0.30 0.52 0.63 0.78 0.95 0.86 0.58 0.49 0.32 0.17 0.07 0.03 0.02 0.02 0.01 0.01 0.00 0.01 0.02 0.02 0.02 0.00 0.00 0.00 0.00 0.00
0.00 0.01 0.01 0.03 0.01 0.01 0.14 0.47 0.52 0.68 0.72 0.95 0.62 0.46 0.35 0.25 0.13 0.05 0.04 0.04 0.02 0.02 0.01 0.02 0.02 0.02 0.02 0.01 0.00 0.00 0.01 0.00
0.00 0.00 0.00 0.01 0.00 0.00 0.03 0.14 0.27 0.47 0.72 1.02 1.13 0.75 0.45 0.27 0.18 0.09 0.09 0.09 0.14 0.06 0.04 0.05 0.06 0.04 0.04 0.03 0.02 0.01 0.01 0.01
0.00 0.00 0.00 0.02 0.01 0.00 0.01 0.03 0.03 0.15 0.42 0.70 1.30 1.36 0.81 0.45 0.26 0.17 0.16 0.16 0.19 0.15 0.13 0.11 0.14 0.12 0.08 0.05 0.03 0.03 0.04 0.06
0.00 0.00 0.01 0.01 0.01 0.00 0.00 0.01 0.00 0.01 0.07 0.23 0.54 1.33 1.33 0.76 0.35 0.22 0.23 0.23 0.24 0.26 0.24 0.21 0.18 0.20 0.14 0.13 0.12 0.07 0.07 0.10
0.00 0.00 0.00 0.01 0.01 0.01 0.00 0.00 0.00 0.00 0.01 0.06 0.18 0.38 0.91 0.94 0.66 0.35 0.29 0.30 0.32 0.36 0.45 0.40 0.32 0.31 0.34 0.24 0.20 0.13 0.09 0.08

GFSFLT2_prec_precacc24_117.txt.gz
Total_Precipitation_Accumulation
0.14 1.92 1.83 1.37 1.78 2.45 2.96 2.16 2.01 1.77 1.29 0.72 0.34 0.35 0.49 0.27 0.19 0.16 0.13 0.07 0.06 0.07 0.03 0.00 0.00 0.00 0.00 0.00 0.00 0.00 0.00 0.00
0.03 0.22 0.83 0.73 1.13 2.20 2.76 3.13 2.58 1.89 1.47 1.23 0.44 0.45 0.35 0.36 0.21 0.16 0.09 0.04 0.04 0.03 0.01 0.00 0.00 0.00 0.00 0.00 0.00 0.00 0.00 0.00
0.01 0.03 0.08 0.31 0.51 1.34 1.97 2.99 2.84 1.81 1.37 1.91 0.78 0.36 0.38 0.30 0.12 0.09 0.09 0.04 0.02 0.01 0.00 0.00 0.00 0.00 0.00 0.00 0.00 0.00 0.00 0.00
0.01 0.00 0.02 0.10 0.22 0.40 1.03 2.04 4.06 2.00 1.34 1.61 1.38 0.47 0.39 0.24 0.17 0.09 0.10 0.03 0.01 0.00 0.00 0.00 0.00 0.00 0.00 0.00 0.00 0.00 0.00 0.00
0.01 0.02 0.02 0.07 0.10 0.21 0.71 1.45 3.52 3.06 1.44 1.03 1.43 0.56 0.50 0.30 0.17 0.22 0.12 0.03 0.00 0.00 0.00 0.00 0.00 0.00 0.00 0.00 0.00 0.00 0.00 0.00
0.05 0.04 0.05 0.05 0.12 0.23 0.73 0.70 1.56 3.44 1.63 1.09 0.88 0.91 0.39 0.28 0.13 0.15 0.08 0.00 0.00 0.00 0.00 0.00 0.00 0.00 0.00 0.00 0.00 0.00 0.00 0.00
0.05 0.11 0.12 0.15 0.16 0.31 0.59 0.53 0.89 2.36 1.96 1.23 0.57 0.73 0.44 0.23 0.16 0.12 0.06 0.00 0.00 0.00 0.00 0.00 0.00 0.00 0.00 0.00 0.00 0.00 0.00 0.00
0.02 0.05 0.05 0.10 0.16 0.24 0.56 0.56 0.74 1.68 2.05 1.32 0.72 0.40 0.43 0.19 0.16 0.08 0.04 0.02 0.00 0.00 0.00 0.00 0.00 0.00 0.00 0.00 0.00 0.00 0.00 0.00
0.01 0.02 0.04 0.06 0.12 0.19 0.36 0.47 0.51 0.97 1.67 1.27 1.12 0.48 0.36 0.25 0.18 0.09 0.04 0.02 0.00 0.00 0.00 0.00 0.00 0.00 0.00 0.00 0.00 0.00 0.00 0.00
0.01 0.01 0.02 0.06 0.10 0.22 0.37 0.35 0.36 0.63 1.19 1.11 1.05 1.10 0.39 0.29 0.23 0.12 0.03 0.02 0.00 0.00 0.00 0.00 0.00 0.00 0.00 0.00 0.00 0.00 0.00 0.00
0.01 0.01 0.01 0.13 0.20 0.22 0.44 0.35 0.35 0.46 0.96 0.99 0.79 1.29 0.74 0.26 0.28 0.18 0.09 0.03 0.00 0.00 0.00 0.00 0.00 0.00 0.00 0.00 0.00 0.00 0.00 0.00
0.01 0.00 0.01 0.04 0.19 0.22 0.63 0.55 0.47 0.52 0.83 0.78 0.69 0.93 0.98 0.49 0.34 0.25 0.19 0.10 0.05 0.01 0.00 0.00 0.00 0.00 0.00 0.00 0.00 0.00 0.00 0.00
0.00 0.01 0.01 0.02 0.03 0.24 0.69 0.67 0.54 0.60 0.68 0.66 0.55 0.66 0.71 0.84 0.38 0.16 0.14 0.10 0.06 0.02 0.00 0.00 0.01 0.01 0.00 0.00 0.00 0.00 0.00 0.00
0.00 0.01 0.00 0.01 0.05 0.16 0.40 0.52 0.55 0.51 0.62 0.58 0.53 0.59 0.43 0.62 0.45 0.16 0.07 0.07 0.04 0.02 0.00 0.00 0.01 0.02 0.01 0.00 0.00 0.00 0.00 0.00
0.00 0.00 0.00 0.02 0.02 0.06 0.26 0.45 0.62 0.77 0.95 0.87 0.58 0.57 0.44 0.36 0.38 0.23 0.07 0.03 0.02 0.01 0.00 0.00 0.00 0.02 0.02 0.00 0.00 0.00 0.00 0.00
0.00 0.01 0.00 0.01 0.01 0.01 0.13 0.46 0.51 0.67 0.72 0.96 0.62 0.50 0.47 0.36 0.32 0.32 0.12 0.05 0.02 0.01 0.00 0.01 0.00 0.01 0.01 0.01 0.00 0.00 0.01 0.00
0.00 0.00 0.00 0.00 0.00 0.01 0.03 0.15 0.28 0.47 0.73 1.02 1.14 0.76 0.49 0.42 0.33 0.29 0.18 0.10 0.11 0.04 0.02 0.03 0.03 0.01 0.02 0.02 0.02 0.01 0.01 0.01
0.00 0.00 0.00 0.02 0.00 0.00 0.01 0.03 0.04 0.15 0.42 0.71 1.31 1.37 0.82 0.51 0.45 0.31 0.25 0.20 0.19 0.14 0.09 0.07 0.09 0.08 0.05 0.04 0.01 0.01 0.01 0.03
0.00 0.00 0.01 0.01 0.01 0.00 0.00 0.01 0.00 0.01 0.07 0.23 0.56 1.39 1.37 0.76 0.40 0.33 0.30 0.26 0.25 0.27 0.24 0.20 0.14 0.17 0.12 0.09 0.08 0.04 0.05 0.09
0.00 0.01 0.01 0.01 0.01 0.04 0.01 0.00 0.00 0.00 0.01 0.06 0.18 0.42 0.97 0.97 0.66 0.36 0.33 0.35 0.33 0.37 0.45 0.40 0.31 0.28 0.31 0.19 0.15 0.11 0.08 0.07